| time (UTC) | temp F | wind direction | speed MPH | gust MPH | rain 1hr in | rain 24hr in | rain mn in | humidity % | barometer mb |
| 20260506153120 | 67 | 216 | 1.0 | 1.0 | 0.00 | 0.00 | 0.00 | 81 | 1009.0 |
| 20260506152617 | 67 | 279 | 2.0 | 3.0 | 0.00 | 0.00 | 0.00 | 82 | 1009.2 |
| 20260506152114 | 66 | 251 | 1.0 | 2.0 | 0.00 | 0.00 | 0.00 | 82 | 1009.5 |
| 20260506151613 | 67 | 207 | 0.0 | 0.0 | 0.00 | 0.00 | 0.00 | 81 | 1009.4 |
| 20260506151109 | 67 | 201 | 3.0 | 3.0 | 0.00 | 0.00 | 0.00 | 78 | 1009.3 |
| 20260506150606 | 68 | 188 | 11.0 | 15.0 | 0.00 | 0.00 | 0.00 | 75 | 1009.3 |
| 20260506145600 | 68 | 257 | 2.0 | 3.0 | 0.00 | 0.00 | 0.00 | 74 | 1009.7 |
| 20260506145057 | 68 | 234 | 1.0 | 1.0 | 0.00 | 0.00 | 0.00 | 74 | 1009.5 |
| 20260506144554 | 68 | 122 | 1.0 | 1.0 | 0.00 | 0.00 | 0.00 | 74 | 1009.5 |
| 20260506144051 | 68 | 295 | 3.0 | 3.0 | 0.00 | 0.00 | 0.00 | 73 | 1009.3 |
| 20260506143549 | 69 | 116 | 7.0 | 9.0 | 0.00 | 0.00 | 0.00 | 73 | 1009.6 |
| 20260506143047 | 69 | 183 | 2.0 | 2.0 | 0.00 | 0.00 | 0.00 | 72 | 1009.6 |
| 20260506142544 | 69 | 169 | 2.0 | 3.0 | 0.00 | 0.00 | 0.00 | 72 | 1009.4 |
| 20260506142042 | 69 | 132 | 6.0 | 7.0 | 0.00 | 0.00 | 0.00 | 72 | 1009.4 |
| 20260506141539 | 69 | 190 | 4.0 | 5.0 | 0.00 | 0.00 | 0.00 | 72 | 1009.4 |
| 20260506141038 | 68 | 153 | 3.0 | 3.0 | 0.00 | 0.00 | 0.00 | 73 | 1009.3 |
| 20260506140535 | 68 | 279 | 2.0 | 3.0 | 0.00 | 0.00 | 0.00 | 72 | 1009.5 |
| 20260506140032 | 68 | 206 | 3.0 | 5.0 | 0.00 | 0.00 | 0.00 | 73 | 1009.4 |
| 20260506135529 | 68 | 160 | 1.0 | 2.0 | 0.00 | 0.00 | 0.00 | 74 | 1009.4 |
| 20260506135025 | 68 | 223 | 3.0 | 6.0 | 0.00 | 0.00 | 0.00 | 74 | 1009.5 |
| 20260506134521 | 68 | 159 | 2.0 | 3.0 | 0.00 | 0.00 | 0.00 | 73 | 1009.7 |
| 20260506134018 | 69 | 202 | 1.0 | 2.0 | 0.00 | 0.00 | 0.00 | 72 | 1009.5 |
| 20260506133515 | 69 | 275 | 2.0 | 3.0 | 0.00 | 0.00 | 0.00 | 73 | 1009.5 |
| 20260506133012 | 68 | 187 | 3.0 | 5.0 | 0.00 | 0.00 | 0.00 | 74 | 1009.9 |
| 20260506132509 | 68 | 270 | 1.0 | 1.0 | 0.00 | 0.00 | 0.00 | 74 | 1009.8 |
| 20260506132006 | 68 | 125 | 0.0 | 0.0 | 0.00 | 0.00 | 0.00 | 74 | 1009.5 |
| 20260506131503 | 67 | 258 | 3.0 | 3.0 | 0.00 | 0.00 | 0.00 | 75 | 1009.4 |
| 20260506131000 | 67 | 179 | 1.0 | 1.0 | 0.00 | 0.00 | 0.00 | 76 | 1009.6 |
| 20260506130456 | 67 | 66 | 1.0 | 1.0 | 0.00 | 0.00 | 0.00 | 76 | 1009.8 |
| 20260506125954 | 67 | 216 | 3.0 | 3.0 | 0.00 | 0.00 | 0.00 | 76 | 1009.6 |
| 20260506125452 | 67 | 122 | 1.0 | 1.0 | 0.00 | 0.00 | 0.00 | 77 | 1009.6 |
| 20260506124950 | 67 | 271 | 2.0 | 3.0 | 0.00 | 0.00 | 0.00 | 77 | 1009.5 |
| 20260506124447 | 66 | 182 | 1.0 | 2.0 | 0.00 | 0.00 | 0.00 | 77 | 1009.2 |
| 20260506123945 | 67 | 177 | 2.0 | 3.0 | 0.00 | 0.00 | 0.00 | 77 | 1009.3 |
| 20260506123443 | 66 | 168 | 1.0 | 1.0 | 0.00 | 0.00 | 0.00 | 78 | 1009.3 |
| 20260506122940 | 66 | 212 | 2.0 | 2.0 | 0.00 | 0.00 | 0.00 | 78 | 1009.2 |
| 20260506122437 | 66 | 202 | 3.0 | 3.0 | 0.00 | 0.00 | 0.00 | 78 | 1009.2 |
| 20260506121935 | 65 | 125 | 2.0 | 3.0 | 0.00 | 0.00 | 0.00 | 79 | 1009.5 |
| 20260506121431 | 66 | 234 | 3.0 | 3.0 | 0.00 | 0.00 | 0.00 | 79 | 1009.2 |
| 20260506120929 | 65 | 287 | 2.0 | 2.0 | 0.00 | 0.00 | 0.00 | 79 | 1009.8 |
| 20260506120426 | 65 | 181 | 4.0 | 6.0 | 0.00 | 0.00 | 0.00 | 79 | 1009.9 |
| 20260506115923 | 66 | 297 | 3.0 | 5.0 | 0.00 | 0.00 | 0.00 | 79 | 1009.8 |
| 20260506115421 | 65 | 284 | 2.0 | 3.0 | 0.00 | 0.00 | 0.00 | 79 | 1009.7 |
| 20260506114919 | 65 | 180 | 5.0 | 6.0 | 0.00 | 0.00 | 0.00 | 80 | 1009.9 |
| 20260506114416 | 66 | 184 | 2.0 | 3.0 | 0.00 | 0.00 | 0.00 | 79 | 1009.9 |
| 20260506113915 | 66 | 144 | 2.0 | 2.0 | 0.00 | 0.00 | 0.00 | 80 | 1010.0 |
| 20260506113412 | 65 | 167 | 1.0 | 2.0 | 0.00 | 0.00 | 0.00 | 79 | 1009.9 |
| 20260506112909 | 65 | 166 | 1.0 | 2.0 | 0.00 | 0.00 | 0.00 | 80 | 1009.8 |
| 20260506112407 | 65 | 173 | 2.0 | 3.0 | 0.00 | 0.00 | 0.00 | 80 | 1009.8 |
| 20260506111904 | 65 | 212 | 3.0 | 5.0 | 0.00 | 0.00 | 0.00 | 80 | 1009.8 |
| 20260506111402 | 65 | 86 | 4.0 | 7.0 | 0.00 | 0.00 | 0.00 | 80 | 1009.8 |
| 20260506110859 | 64 | 207 | 5.0 | 7.0 | 0.00 | 0.00 | 0.00 | 81 | 1009.7 |
| 20260506110356 | 64 | 213 | 1.0 | 2.0 | 0.00 | 0.00 | 0.00 | 82 | 1009.7 |
| 20260506105852 | 64 | 145 | 2.0 | 2.0 | 0.00 | 0.00 | 0.00 | 82 | 1009.7 |
| 20260506105349 | 64 | 328 | 2.0 | 3.0 | 0.00 | 0.00 | 0.00 | 82 | 1009.3 |
| 20260506104847 | 64 | 239 | 8.0 | 10.0 | 0.00 | 0.00 | 0.00 | 82 | 1009.5 |
| 20260506104344 | 64 | 156 | 3.0 | 5.0 | 0.00 | 0.00 | 0.00 | 82 | 1009.5 |
| 20260506103842 | 64 | 217 | 0.0 | 1.0 | 0.00 | 0.00 | 0.00 | 83 | 1009.6 |
| 20260506103339 | 64 | 198 | 2.0 | 2.0 | 0.00 | 0.00 | 0.00 | 83 | 1009.8 |
| 20260506102836 | 64 | 198 | 2.0 | 2.0 | 0.00 | 0.00 | 0.00 | 83 | 1009.8 |
| 20260506102334 | 64 | 346 | 1.0 | 2.0 | 0.00 | 0.00 | 0.00 | 83 | 1009.7 |
| 20260506101831 | 64 | 140 | 1.0 | 1.0 | 0.00 | 0.00 | 0.00 | 83 | 1009.6 |
| 20260506101327 | 64 | 174 | 1.0 | 1.0 | 0.00 | 0.00 | 0.00 | 83 | 1009.6 |
| 20260506100825 | 63 | 217 | 3.0 | 5.0 | 0.00 | 0.00 | 0.00 | 83 | 1009.5 |
| 20260506100323 | 63 | 225 | 1.0 | 2.0 | 0.00 | 0.00 | 0.00 | 84 | 1009.4 |
| 20260506095822 | 63 | 229 | 1.0 | 1.0 | 0.00 | 0.00 | 0.00 | 84 | 1009.3 |
| 20260506095318 | 63 | 179 | 0.0 | 0.0 | 0.00 | 0.00 | 0.00 | 84 | 1009.3 |
| 20260506094815 | 63 | 246 | 2.0 | 2.0 | 0.00 | 0.00 | 0.00 | 83 | 1009.4 |
| 20260506094314 | 63 | 180 | 2.0 | 2.0 | 0.00 | 0.00 | 0.00 | 83 | 1009.3 |
| 20260506093812 | 63 | 189 | 2.0 | 2.0 | 0.00 | 0.00 | 0.00 | 84 | 1009.2 |
| 20260506093308 | 63 | 189 | 1.0 | 2.0 | 0.00 | 0.00 | 0.00 | 84 | 1009.3 |
| 20260506092806 | 63 | 290 | 1.0 | 1.0 | 0.00 | 0.00 | 0.00 | 84 | 1009.4 |
| 20260506092306 | 63 | 213 | 1.0 | 2.0 | 0.00 | 0.00 | 0.00 | 84 | 1009.5 |
| 20260506091801 | 63 | 168 | 0.0 | 0.0 | 0.00 | 0.00 | 0.00 | 84 | 1009.5 |
| 20260506091258 | 63 | 253 | 2.0 | 2.0 | 0.00 | 0.00 | 0.00 | 84 | 1009.5 |
| 20260506090756 | 63 | 155 | 2.0 | 2.0 | 0.00 | 0.00 | 0.00 | 84 | 1009.5 |
| 20260506090252 | 63 | 212 | 0.0 | 0.0 | 0.00 | 0.00 | 0.00 | 84 | 1009.6 |
| 20260506085749 | 63 | 167 | 3.0 | 3.0 | 0.00 | 0.00 | 0.00 | 84 | 1009.7 |
| 20260506085246 | 64 | 159 | 1.0 | 1.0 | 0.00 | 0.00 | 0.00 | 83 | 1009.5 |
| 20260506084742 | 64 | 264 | 1.0 | 2.0 | 0.00 | 0.00 | 0.00 | 82 | 1009.5 |
| 20260506084238 | 64 | 216 | 2.0 | 3.0 | 0.00 | 0.00 | 0.00 | 82 | 1009.5 |
| 20260506083736 | 64 | 174 | 2.0 | 2.0 | 0.00 | 0.00 | 0.00 | 82 | 1009.5 |
| 20260506083233 | 64 | 164 | 4.0 | 6.0 | 0.00 | 0.00 | 0.00 | 82 | 1009.5 |
| 20260506082731 | 64 | 135 | 2.0 | 3.0 | 0.00 | 0.00 | 0.00 | 81 | 1009.5 |
| 20260506082226 | 64 | 190 | 3.0 | 5.0 | 0.00 | 0.00 | 0.00 | 81 | 1009.4 |
| 20260506081724 | 64 | 196 | 1.0 | 1.0 | 0.00 | 0.00 | 0.00 | 82 | 1009.6 |
| 20260506081221 | 64 | 198 | 0.0 | 0.0 | 0.00 | 0.00 | 0.00 | 81 | 1009.6 |
| 20260506080719 | 64 | 235 | 1.0 | 3.0 | 0.00 | 0.00 | 0.00 | 81 | 1009.5 |
| 20260506080215 | 64 | 182 | 1.0 | 2.0 | 0.00 | 0.00 | 0.00 | 80 | 1009.4 |
| 20260506073200 | 65 | 184 | 3.0 | 3.0 | 0.00 | 0.00 | 0.00 | 78 | 1009.6 |
| 20260506072656 | 65 | 204 | 1.0 | 2.0 | 0.00 | 0.00 | 0.00 | 78 | 1009.4 |
| 20260506072154 | 65 | 221 | 2.0 | 5.0 | 0.00 | 0.00 | 0.00 | 77 | 1009.5 |
| 20260506071651 | 65 | 275 | 1.0 | 2.0 | 0.00 | 0.00 | 0.00 | 77 | 1009.5 |
| 20260506071149 | 66 | 161 | 1.0 | 1.0 | 0.00 | 0.00 | 0.00 | 76 | 1009.7 |
| 20260506070645 | 65 | 165 | 2.0 | 2.0 | 0.00 | 0.00 | 0.00 | 76 | 1009.7 |
| 20260506070142 | 66 | 238 | 1.0 | 1.0 | 0.00 | 0.00 | 0.00 | 76 | 1009.7 |
| 20260506062120 | 66 | 197 | 1.0 | 1.0 | 0.00 | 0.00 | 0.00 | 73 | 1009.9 |
| 20260506061616 | 66 | 256 | 0.0 | 1.0 | 0.00 | 0.00 | 0.00 | 73 | 1010.0 |
| 20260506061114 | 66 | 219 | 3.0 | 5.0 | 0.00 | 0.00 | 0.00 | 73 | 1010.0 |
| 20260506060612 | 66 | 261 | 1.0 | 5.0 | 0.00 | 0.00 | 0.00 | 73 | 1009.9 |
| 20260506060108 | 67 | 166 | 1.0 | 2.0 | 0.00 | 0.00 | 0.00 | 72 | 1009.7 |
| 20260506051040 | 67 | 255 | 1.0 | 1.0 | 0.00 | 0.00 | 0.00 | 70 | 1010.2 |
| 20260506050538 | 67 | 180 | 1.0 | 2.0 | 0.00 | 0.00 | 0.00 | 69 | 1010.3 |
| 20260506045029 | 68 | 218 | 1.0 | 2.0 | 0.00 | 0.00 | 0.00 | 68 | 1010.5 |
| 20260506044527 | 68 | 213 | 1.0 | 1.0 | 0.00 | 0.00 | 0.00 | 67 | 1010.3 |
| 20260506044023 | 67 | 128 | 2.0 | 3.0 | 0.00 | 0.00 | 0.00 | 68 | 1010.6 |
| 20260506043520 | 67 | 250 | 3.0 | 5.0 | 0.00 | 0.00 | 0.00 | 68 | 1010.3 |
| 20260506043019 | 68 | 229 | 1.0 | 2.0 | 0.00 | 0.00 | 0.00 | 67 | 1010.4 |
| 20260506042518 | 68 | 233 | 0.0 | 1.0 | 0.00 | 0.00 | 0.00 | 67 | 1010.7 |
| 20260506042015 | 68 | 161 | 2.0 | 3.0 | 0.00 | 0.00 | 0.00 | 67 | 1010.4 |
| 20260506041514 | 68 | 178 | 2.0 | 3.0 | 0.00 | 0.00 | 0.00 | 67 | 1010.5 |
| 20260506041010 | 68 | 217 | 1.0 | 1.0 | 0.00 | 0.00 | 0.00 | 66 | 1010.4 |
| 20260506040508 | 68 | 285 | 2.0 | 2.0 | 0.00 | 0.00 | 0.00 | 66 | 1010.4 |
| 20260506040003 | 68 | 316 | 2.0 | 2.0 | 0.00 | 0.00 | 0.00 | 67 | 1010.3 |
| 20260506035501 | 68 | 235 | 2.0 | 3.0 | 0.00 | 0.00 | 0.00 | 66 | 1010.1 |
| 20260506034957 | 68 | 220 | 3.0 | 6.0 | 0.00 | 0.00 | 0.00 | 66 | 1010.3 |
| 20260506034455 | 68 | 214 | 1.0 | 1.0 | 0.00 | 0.00 | 0.00 | 66 | 1010.3 |
| 20260506033951 | 68 | 229 | 1.0 | 2.0 | 0.00 | 0.00 | 0.00 | 65 | 1010.4 |
| 20260506033449 | 68 | 222 | 2.0 | 2.0 | 0.00 | 0.00 | 0.00 | 65 | 1010.4 |
| 20260506032945 | 68 | 121 | 2.0 | 3.0 | 0.00 | 0.00 | 0.00 | 66 | 1010.2 |
| 20260506032443 | 68 | 199 | 0.0 | 0.0 | 0.00 | 0.00 | 0.00 | 65 | 1010.4 |
| 20260506031939 | 68 | 197 | 3.0 | 3.0 | 0.00 | 0.00 | 0.00 | 65 | 1010.3 |
| 20260506031437 | 69 | 167 | 1.0 | 2.0 | 0.00 | 0.00 | 0.00 | 64 | 1010.4 |
| 20260506030934 | 69 | 220 | 3.0 | 5.0 | 0.00 | 0.00 | 0.00 | 64 | 1010.4 |
| 20260506030432 | 69 | 169 | 1.0 | 1.0 | 0.00 | 0.00 | 0.00 | 63 | 1010.1 |
| 20260506025929 | 70 | 214 | 2.0 | 3.0 | 0.00 | 0.00 | 0.00 | 62 | 1010.0 |
| 20260506025426 | 70 | 204 | 1.0 | 1.0 | 0.00 | 0.00 | 0.00 | 61 | 1010.2 |
| 20260506024922 | 70 | 220 | 1.0 | 2.0 | 0.00 | 0.00 | 0.00 | 61 | 1010.0 |
| 20260506024419 | 70 | 188 | 4.0 | 6.0 | 0.00 | 0.00 | 0.00 | 61 | 1009.9 |
| 20260506023915 | 71 | 201 | 2.0 | 3.0 | 0.00 | 0.00 | 0.00 | 60 | 1010.2 |
| 20260506023412 | 71 | 186 | 3.0 | 3.0 | 0.00 | 0.00 | 0.00 | 59 | 1010.1 |
| 20260506022909 | 71 | 314 | 4.0 | 7.0 | 0.00 | 0.00 | 0.00 | 59 | 1010.0 |
| 20260506022407 | 71 | 230 | 3.0 | 3.0 | 0.00 | 0.00 | 0.00 | 58 | 1009.8 |
| 20260506021904 | 71 | 224 | 3.0 | 6.0 | 0.00 | 0.00 | 0.00 | 57 | 1010.1 |
| 20260506021401 | 72 | 180 | 2.0 | 5.0 | 0.00 | 0.00 | 0.00 | 57 | 1010.0 |
| 20260506020858 | 72 | 184 | 1.0 | 2.0 | 0.00 | 0.00 | 0.00 | 56 | 1010.1 |
| 20260506020356 | 72 | 198 | 5.0 | 6.0 | 0.00 | 0.00 | 0.00 | 56 | 1010.2 |
| 20260506015853 | 72 | 184 | 10.0 | 11.0 | 0.00 | 0.00 | 0.00 | 55 | 1010.1 |
| 20260506015351 | 73 | 184 | 3.0 | 5.0 | 0.00 | 0.00 | 0.00 | 54 | 1009.9 |
| 20260506014847 | 73 | 260 | 3.0 | 5.0 | 0.00 | 0.00 | 0.00 | 53 | 1009.7 |
| 20260506014344 | 73 | 204 | 4.0 | 6.0 | 0.00 | 0.00 | 0.00 | 52 | 1009.9 |
| 20260506013840 | 73 | 228 | 4.0 | 5.0 | 0.00 | 0.00 | 0.00 | 51 | 1009.8 |
| 20260506013338 | 74 | 213 | 3.0 | 5.0 | 0.00 | 0.00 | 0.00 | 49 | 1009.9 |
| 20260506012834 | 74 | 210 | 7.0 | 8.0 | 0.00 | 0.00 | 0.00 | 49 | 1009.9 |
| 20260506012332 | 74 | 204 | 6.0 | 10.0 | 0.00 | 0.00 | 0.00 | 49 | 1009.7 |
| 20260506011829 | 74 | 218 | 3.0 | 3.0 | 0.00 | 0.00 | 0.00 | 49 | 1009.7 |
| 20260506011325 | 74 | 217 | 3.0 | 3.0 | 0.00 | 0.00 | 0.00 | 48 | 1009.5 |
| 20260506010823 | 75 | 176 | 4.0 | 5.0 | 0.00 | 0.00 | 0.00 | 47 | 1009.6 |
| 20260506010321 | 75 | 193 | 8.0 | 11.0 | 0.00 | 0.00 | 0.00 | 47 | 1009.4 |
| 20260506005817 | 75 | 194 | 2.0 | 3.0 | 0.00 | 0.00 | 0.00 | 47 | 1009.4 |
| 20260506005314 | 75 | 214 | 2.0 | 2.0 | 0.00 | 0.00 | 0.00 | 47 | 1009.4 |
| 20260506004810 | 75 | 272 | 3.0 | 5.0 | 0.00 | 0.00 | 0.00 | 47 | 1009.4 |
| 20260506004308 | 75 | 167 | 3.0 | 6.0 | 0.00 | 0.00 | 0.00 | 46 | 1009.3 |
| 20260506003804 | 76 | 250 | 2.0 | 2.0 | 0.00 | 0.00 | 0.00 | 46 | 1009.0 |
| 20260506003300 | 76 | 247 | 5.0 | 6.0 | 0.00 | 0.00 | 0.00 | 45 | 1009.3 |
| 20260506002757 | 76 | 194 | 4.0 | 7.0 | 0.00 | 0.00 | 0.00 | 45 | 1009.3 |
| 20260506002253 | 76 | 230 | 3.0 | 3.0 | 0.00 | 0.00 | 0.00 | 44 | 1009.1 |
| 20260506001749 | 76 | 195 | 3.0 | 5.0 | 0.00 | 0.00 | 0.00 | 44 | 1009.1 |
| 20260506001247 | 76 | 185 | 2.0 | 5.0 | 0.00 | 0.00 | 0.00 | 43 | 1009.0 |
| 20260506000743 | 76 | 159 | 4.0 | 7.0 | 0.00 | 0.00 | 0.00 | 42 | 1009.1 |
| 20260506000241 | 76 | 149 | 1.0 | 1.0 | 0.00 | 0.00 | 0.00 | 41 | 1008.9 |
| 20260505235738 | 77 | 187 | 2.0 | 3.0 | 0.00 | 0.00 | 0.00 | 41 | 1008.8 |
| 20260505235235 | 77 | 204 | 2.0 | 2.0 | 0.00 | 0.00 | 0.00 | 40 | 1008.9 |
| 20260505234732 | 77 | 44 | 2.0 | 2.0 | 0.00 | 0.00 | 0.00 | 40 | 1008.9 |
| 20260505234230 | 77 | 208 | 1.0 | 1.0 | 0.00 | 0.00 | 0.00 | 40 | 1008.9 |
| 20260505233726 | 77 | 194 | 1.0 | 2.0 | 0.00 | 0.00 | 0.00 | 39 | 1008.7 |
| 20260505233224 | 78 | 228 | 3.0 | 5.0 | 0.00 | 0.00 | 0.00 | 38 | 1008.7 |
| 20260505232721 | 78 | 318 | 2.0 | 2.0 | 0.00 | 0.00 | 0.00 | 38 | 1008.6 |
| 20260505232218 | 78 | 259 | 3.0 | 6.0 | 0.00 | 0.00 | 0.00 | 37 | 1008.6 |
| 20260505231715 | 78 | 116 | 1.0 | 2.0 | 0.00 | 0.00 | 0.00 | 37 | 1008.6 |
| 20260505231214 | 78 | 253 | 4.0 | 8.0 | 0.00 | 0.00 | 0.00 | 37 | 1008.5 |
| 20260505230712 | 78 | 142 | 1.0 | 1.0 | 0.00 | 0.00 | 0.00 | 37 | 1008.4 |
| 20260505230208 | 79 | 126 | 2.0 | 2.0 | 0.00 | 0.00 | 0.00 | 37 | 1008.4 |
| 20260505225704 | 79 | 163 | 2.0 | 5.0 | 0.00 | 0.00 | 0.00 | 37 | 1008.5 |
| 20260505225201 | 79 | 133 | 13.0 | 16.0 | 0.00 | 0.00 | 0.00 | 36 | 1008.4 |
| 20260505224657 | 79 | 167 | 2.0 | 3.0 | 0.00 | 0.00 | 0.00 | 36 | 1008.1 |
| 20260505224155 | 79 | 221 | 6.0 | 7.0 | 0.00 | 0.00 | 0.00 | 36 | 1008.0 |
| 20260505223652 | 80 | 312 | 2.0 | 3.0 | 0.00 | 0.00 | 0.00 | 35 | 1008.2 |
| 20260505223148 | 80 | 293 | 4.0 | 6.0 | 0.00 | 0.00 | 0.00 | 34 | 1007.8 |
| 20260505222644 | 80 | 223 | 4.0 | 5.0 | 0.00 | 0.00 | 0.00 | 34 | 1008.1 |
| 20260505222141 | 80 | 196 | 2.0 | 3.0 | 0.00 | 0.00 | 0.00 | 34 | 1008.0 |
| 20260505221638 | 80 | 232 | 7.0 | 11.0 | 0.00 | 0.00 | 0.00 | 34 | 1008.3 |
| 20260505221134 | 81 | 219 | 8.0 | 15.0 | 0.00 | 0.00 | 0.00 | 32 | 1008.2 |
| 20260505220632 | 81 | 351 | 1.0 | 2.0 | 0.00 | 0.00 | 0.00 | 33 | 1008.3 |
| 20260505220129 | 81 | 200 | 2.0 | 2.0 | 0.00 | 0.00 | 0.00 | 33 | 1008.4 |
| 20260505215626 | 81 | 257 | 3.0 | 5.0 | 0.00 | 0.00 | 0.00 | 33 | 1008.2 |
| 20260505215125 | 81 | 81 | 3.0 | 6.0 | 0.00 | 0.00 | 0.00 | 33 | 1008.0 |
| 20260505214622 | 81 | 316 | 5.0 | 7.0 | 0.00 | 0.00 | 0.00 | 33 | 1007.9 |
| 20260505214119 | 80 | 177 | 5.0 | 8.0 | 0.00 | 0.00 | 0.00 | 34 | 1007.7 |
| 20260505213617 | 81 | 217 | 3.0 | 3.0 | 0.00 | 0.00 | 0.00 | 34 | 1007.9 |
| 20260505213113 | 82 | 84 | 6.0 | 9.0 | 0.00 | 0.00 | 0.00 | 33 | 1007.7 |
| 20260505212609 | 83 | 228 | 4.0 | 7.0 | 0.00 | 0.00 | 0.00 | 34 | 1007.8 |
| 20260505212107 | 82 | 236 | 1.0 | 2.0 | 0.00 | 0.00 | 0.00 | 34 | 1007.6 |
| 20260505211603 | 83 | 173 | 8.0 | 13.0 | 0.00 | 0.00 | 0.00 | 33 | 1007.8 |
| 20260505211101 | 83 | 94 | 2.0 | 3.0 | 0.00 | 0.00 | 0.00 | 35 | 1007.6 |
| 20260505210557 | 82 | 180 | 3.0 | 3.0 | 0.00 | 0.00 | 0.00 | 35 | 1007.3 |
| 20260505210055 | 83 | 221 | 4.0 | 5.0 | 0.00 | 0.00 | 0.00 | 34 | 1007.6 |
| 20260505205552 | 83 | 40 | 4.0 | 6.0 | 0.00 | 0.00 | 0.00 | 34 | 1007.4 |
| 20260505205050 | 83 | 316 | 5.0 | 9.0 | 0.00 | 0.00 | 0.00 | 33 | 1007.7 |
| 20260505204547 | 83 | 197 | 4.0 | 6.0 | 0.00 | 0.00 | 0.00 | 32 | 1007.7 |
| 20260505204044 | 83 | 4 | 5.0 | 8.0 | 0.00 | 0.00 | 0.00 | 33 | 1007.8 |
| 20260505203540 | 82 | 184 | 4.0 | 11.0 | 0.00 | 0.00 | 0.00 | 33 | 1008.0 |
| 20260505203038 | 83 | 216 | 7.0 | 13.0 | 0.00 | 0.00 | 0.00 | 33 | 1008.0 |
| 20260505202528 | 83 | 192 | 1.0 | 2.0 | 0.00 | 0.00 | 0.00 | 34 | 1008.1 |
| 20260505202024 | 83 | 218 | 7.0 | 9.0 | 0.00 | 0.00 | 0.00 | 34 | 1007.9 |
| 20260505201522 | 83 | 277 | 2.0 | 3.0 | 0.00 | 0.00 | 0.00 | 34 | 1007.9 |
| 20260505201019 | 82 | 280 | 9.0 | 11.0 | 0.00 | 0.00 | 0.00 | 34 | 1008.1 |
| 20260505200517 | 82 | 219 | 6.0 | 8.0 | 0.00 | 0.00 | 0.00 | 34 | 1007.9 |
| 20260505200014 | 82 | 134 | 5.0 | 7.0 | 0.00 | 0.00 | 0.00 | 35 | 1007.7 |
| 20260505195509 | 83 | 194 | 4.0 | 6.0 | 0.00 | 0.00 | 0.00 | 35 | 1008.0 |
| 20260505195007 | 82 | 345 | 3.0 | 6.0 | 0.00 | 0.00 | 0.00 | 34 | 1007.9 |
| 20260505194504 | 83 | 219 | 7.0 | 11.0 | 0.00 | 0.00 | 0.00 | 37 | 1008.0 |
| 20260505194004 | 83 | 201 | 7.0 | 8.0 | 0.00 | 0.00 | 0.00 | 37 | 1008.0 |
| 20260505193501 | 83 | 240 | 6.0 | 10.0 | 0.00 | 0.00 | 0.00 | 36 | 1007.8 |
| 20260505192953 | 84 | 162 | 3.0 | 3.0 | 0.00 | 0.00 | 0.00 | 35 | 1008.1 |
| 20260505192452 | 84 | 179 | 3.0 | 5.0 | 0.00 | 0.00 | 0.00 | 34 | 1008.0 |
| 20260505191949 | 83 | 179 | 8.0 | 13.0 | 0.00 | 0.00 | 0.00 | 34 | 1008.1 |
| 20260505191447 | 83 | 174 | 9.0 | 16.0 | 0.00 | 0.00 | 0.00 | 36 | 1008.3 |
| 20260505190944 | 83 | 212 | 11.0 | 13.0 | 0.00 | 0.00 | 0.00 | 38 | 1008.4 |
| 20260505190439 | 84 | 203 | 4.0 | 5.0 | 0.00 | 0.00 | 0.00 | 37 | 1008.5 |
| 20260505185935 | 84 | 297 | 5.0 | 10.0 | 0.00 | 0.00 | 0.00 | 35 | 1008.4 |
| 20260505185432 | 82 | 200 | 1.0 | 3.0 | 0.00 | 0.00 | 0.00 | 37 | 1008.4 |
| 20260505184928 | 83 | 231 | 9.0 | 22.0 | 0.00 | 0.00 | 0.00 | 35 | 1008.6 |
| 20260505184425 | 83 | 201 | 5.0 | 8.0 | 0.00 | 0.00 | 0.00 | 35 | 1008.6 |
| 20260505183922 | 83 | 297 | 3.0 | 3.0 | 0.00 | 0.00 | 0.00 | 37 | 1008.8 |
| 20260505183419 | 83 | 214 | 5.0 | 9.0 | 0.00 | 0.00 | 0.00 | 40 | 1009.0 |
| 20260505182916 | 82 | 194 | 5.0 | 6.0 | 0.00 | 0.00 | 0.00 | 38 | 1008.8 |
| 20260505182412 | 81 | 271 | 5.0 | 8.0 | 0.00 | 0.00 | 0.00 | 39 | 1008.7 |
| 20260505181909 | 83 | 121 | 4.0 | 9.0 | 0.00 | 0.00 | 0.00 | 39 | 1009.3 |
| 20260505181406 | 83 | 228 | 11.0 | 14.0 | 0.00 | 0.00 | 0.00 | 39 | 1008.8 |
| 20260505180903 | 84 | 250 | 2.0 | 2.0 | 0.00 | 0.00 | 0.00 | 42 | 1008.9 |
| 20260505180359 | 84 | 210 | 4.0 | 5.0 | 0.00 | 0.00 | 0.00 | 39 | 1009.0 |
| 20260505175856 | 83 | 122 | 3.0 | 6.0 | 0.00 | 0.00 | 0.00 | 39 | 1009.1 |
| 20260505175352 | 84 | 229 | 4.0 | 8.0 | 0.00 | 0.00 | 0.00 | 39 | 1009.1 |
| 20260505174849 | 83 | 141 | 2.0 | 2.0 | 0.00 | 0.00 | 0.00 | 42 | 1009.2 |
| 20260505174347 | 85 | 175 | 5.0 | 7.0 | 0.00 | 0.00 | 0.00 | 43 | 1009.0 |
| 20260505173842 | 84 | 236 | 1.0 | 1.0 | 0.00 | 0.00 | 0.00 | 41 | 1009.2 |
| 20260505173338 | 84 | 181 | 1.0 | 2.0 | 0.00 | 0.00 | 0.00 | 41 | 1009.1 |
| 20260505172830 | 83 | 306 | 4.0 | 6.0 | 0.00 | 0.00 | 0.00 | 39 | 1009.3 |
| 20260505172327 | 83 | 240 | 4.0 | 5.0 | 0.00 | 0.00 | 0.00 | 41 | 1009.3 |
| 20260505171821 | 82 | 157 | 3.0 | 5.0 | 0.00 | 0.00 | 0.00 | 43 | 1009.5 |
| 20260505171319 | 82 | 231 | 5.0 | 6.0 | 0.00 | 0.00 | 0.00 | 43 | 1009.5 |
| 20260505170815 | 83 | 201 | 1.0 | 2.0 | 0.00 | 0.00 | 0.00 | 44 | 1009.6 |
| 20260505170312 | 82 | 151 | 4.0 | 6.0 | 0.00 | 0.00 | 0.00 | 44 | 1009.6 |
| 20260505165807 | 82 | 204 | 4.0 | 8.0 | 0.00 | 0.00 | 0.00 | 43 | 1009.6 |
| 20260505165306 | 82 | 166 | 2.0 | 5.0 | 0.00 | 0.00 | 0.00 | 44 | 1009.6 |
| 20260505164759 | 83 | 224 | 1.0 | 2.0 | 0.00 | 0.00 | 0.00 | 45 | 1009.7 |
| 20260505164256 | 81 | 213 | 0.0 | 1.0 | 0.00 | 0.00 | 0.00 | 46 | 1009.9 |
| 20260505163755 | 82 | 177 | 4.0 | 6.0 | 0.00 | 0.00 | 0.00 | 45 | 1009.9 |
| 20260505163253 | 82 | 92 | 1.0 | 1.0 | 0.00 | 0.00 | 0.00 | 46 | 1009.9 |
| 20260505162750 | 82 | 274 | 2.0 | 2.0 | 0.00 | 0.00 | 0.00 | 46 | 1010.1 |
| 20260505162247 | 82 | 175 | 1.0 | 3.0 | 0.00 | 0.00 | 0.00 | 47 | 1010.0 |
| 20260505161744 | 82 | 175 | 3.0 | 5.0 | 0.00 | 0.00 | 0.00 | 45 | 1010.2 |
| 20260505161241 | 80 | 138 | 1.0 | 1.0 | 0.00 | 0.00 | 0.00 | 48 | 1010.2 |
| 20260505160738 | 80 | 251 | 4.0 | 5.0 | 0.00 | 0.00 | 0.00 | 47 | 1010.1 |
| 20260505160236 | 79 | 261 | 4.0 | 6.0 | 0.00 | 0.00 | 0.00 | 47 | 1010.3 |